Погода в Громыках

Россия / Брянская область     52°58′28″N   33°28′22″E
темп.,
°C
ветер,
м/с
пор.,
м/с
влажн.,
%
обл.,
%
осадки,
мм/ч
давл.,
гПа
погр.,
м
22 января, сб
сб2200:00−4зюз4994100 0.2 998290
03:00−5юз4896100 0.4 999283
06:00−6зюз379695 0.1 1000157
09:00−11зюз229860 0.2 100332
12:00−7зюз359337 0.0 1005209
15:00−6з359376 0.0 1007375
18:00−11зюз229880 0.1 100914
21:00−11ссз249899 0.1 101158
23 января, вс
вс2300:00−14с2299100 0.0 101416
03:00−13ссв229769 0.1 101644
06:00−19ссв2210096 0.0 101918
09:00−19св24100100 0.1 102240
12:00−10всв249585 0.0 1025137
15:00−7св359451 0.0 1027237
18:00−11ссв369867 0.0 103170
21:00−13ссв369871 0.0 103378
24 января, пн
пн2400:00−16ссв359963 0.0 103556
03:00−17ссв3510084 0.0 103660
06:00−16ссв4910098 0.0 1036128
09:00−16ссв3109873 0.0 1036141
12:00−10св4109353 0.0 1035226
15:00−7ссв510928 0.0 1034342
18:00−9ссв4109497 0.0 1034236
21:00−13св36978 0.0 103371
25 января, вт
вт2500:00−15ссв369755 0.0 103266
03:00−17св249836 0.0 103047
06:00−20ссв2210059 0.0 102819
09:00−21ссв2210078 0.0 102815
12:00−12в129255 0.0 1025113
15:00−9ююв12906 0.0 1022160
18:00−15ююз229867 0.0 10229
21:00−14зюз2298100 0.0 102130
26 января, ср
ср2600:00−16ююз1199100 0.0 102110
03:00−18ю2210097 0.0 102112
06:00−19з11100100 0.0 102110
09:00−18юв11100100 0.0 102215
12:00−10ю119499 0.3 1021117
15:00−7зсз129287 0.6 1021203
18:00−9ссз129889 0.1 102110
21:00−13с11100100 0.1 102116